DRAUGEN current weather conditions

sailwx.info

Wind from 240 at 11 knots

Air temperature 4.0° C
Dewpoint -0.0° C

Last reported at 2014-Dec-22 21:50 UTC.
Time now 2014-Dec-22 22:45 UTC

Location: N 64°22' E 007°47'.
View on Google Maps.

See reports from other nearby stations

  
Tides and Currents Weather Stations Pressure Air Temp Water Temp Dewpoint Dewpoint Depression Visibility Wind Speed Wind Dir Waves Ship Positions
date/time (UTC)wind fromknots sea level pressurealtimeterstation pressurevisibilityair tempwater tempwave heightnotes
2014-Dec-22 21:50 240 11 4.0
2014-Dec-22 21:20 270 10 4.0
2014-Dec-22 20:50 290 7 5.0
2014-Dec-22 20:20 240 11 4.0
2014-Dec-22 19:50 260 13 4.0
2014-Dec-22 19:20 270 15 3.0
2014-Dec-22 18:50 270 11 3.0
2014-Dec-22 18:20 180 16 4.0
2014-Dec-22 17:50 160 20 3.0
2014-Dec-22 17:20 160 26 3.0
2014-Dec-22 16:50 180 27 3.0
2014-Dec-22 16:20 180 19 3.0
2014-Dec-22 15:50 200 19 3.0
2014-Dec-22 15:20 210 22 5.4 4.0 Light rain.
2014-Dec-22 14:50 190 8 5.0
2014-Dec-22 14:20 210 10 5.0
2014-Dec-22 13:50 220 12 5.0
2014-Dec-22 13:20 240 20 5.0
2014-Dec-22 12:50 240 18 5.0
2014-Dec-22 12:20 240 20 5.4 5.0
2014-Dec-22 11:50 250 19 5.0
2014-Dec-22 11:20 250 20 5.0
2014-Dec-22 10:50 250 22 5.0
2014-Dec-22 10:20 250 22 4.0
2014-Dec-22 09:50 250 26 4.0
2014-Dec-22 09:10 260 29 5.4 4.0 Showers in the vicinity.
2014-Dec-22 08:50 260 27 4.0
2014-Dec-22 08:20 270 30 3.0
2014-Dec-22 07:50 260 27 4.0
2014-Dec-22 07:20 260 24 4.0
2014-Dec-22 06:50 260 18 4.0
2014-Dec-22 06:10 260 26 5.4 4.0
2014-Dec-22 05:50 230 14 4.0
2014-Dec-22 05:20 230 23 4.0
2014-Dec-22 04:50 230 27 5.0
2014-Dec-22 04:20 220 20 6.0
2014-Dec-22 03:50 220 25 5.0
2014-Dec-22 03:20 240 25 6.0
2014-Dec-22 02:50 250 27 6.0
2014-Dec-22 02:20 240 30 6.0
2014-Dec-22 01:50 240 31 6.0
2014-Dec-22 01:20 160 16 5.0
2014-Dec-22 00:50 130 25 3.0
2014-Dec-22 00:20 140 24 2.0
2014-Dec-21 23:50 130 24 2.0
2014-Dec-21 23:20 130 24 2.0
2014-Dec-21 22:50 140 22 2.0
2014-Dec-21 22:20 130 29 4.0
2014-Dec-21 21:50 120 33 3.0
2014-Dec-21 21:20 120 32 4.0
2014-Dec-21 20:50 120 31 4.0
2014-Dec-21 20:20 120 31 4.0
2014-Dec-21 19:50 120 32 4.0
2014-Dec-21 19:20 120 33 4.0
2014-Dec-21 18:50 120 33 4.0
2014-Dec-21 18:20 120 29 4.0
2014-Dec-21 17:50 120 25 4.0
2014-Dec-21 17:20 120 25 4.0
2014-Dec-21 16:50 130 22 4.0
2014-Dec-21 16:20 120 18 4.0
2014-Dec-21 15:50 130 17 4.0
2014-Dec-21 15:10 110 15 5.4 4.0
2014-Dec-21 14:50 110 12 4.0
2014-Dec-21 14:20 120 9 4.0
2014-Dec-21 13:50 140 7 4.0
2014-Dec-21 13:20 160 5 4.0
2014-Dec-21 12:50 160 4 4.0
2014-Dec-21 12:20 190 3 4.0
2014-Dec-21 11:50 290 4 4.0
2014-Dec-21 11:20 330 3 4.0
2014-Dec-21 10:50 270 7 4.0
2014-Dec-21 10:20 290 7 4.0
2014-Dec-21 09:50 310 6 4.0
2014-Dec-21 09:10 300 13 5.4 4.0 Showers in the vicinity.
2014-Dec-21 08:50 280 15 4.0
2014-Dec-21 08:20 260 18 2.0
2014-Dec-21 07:50 330 18 2.0
2014-Dec-21 07:20 300 22 4.0
2014-Dec-21 06:50 300 24 4.0
2014-Dec-21 06:10 320 24 5.4 3.0
2014-Dec-21 05:50 280 27 3.0
2014-Dec-21 05:20 290 25 4.0
2014-Dec-21 04:50 280 22 2.0
2014-Dec-21 04:20 320 22 gusting 34 3.0
2014-Dec-21 03:50 310 30 3.0
2014-Dec-21 03:20 300 29 4.0
2014-Dec-21 02:50 300 27 4.0
2014-Dec-21 02:20 310 19 gusting 35 2.0
2014-Dec-21 01:50 270 20 2.0
2014-Dec-21 01:20 290 37 3.0
2014-Dec-21 00:50 310 30 4.0
2014-Dec-21 00:20 300 24 3.0
2014-Dec-20 23:50 310 26 3.0
2014-Dec-20 23:20 320 31 3.0
2014-Dec-20 22:50 300 24 3.0
2014-Dec-20 22:20 320 20 2.0